EW7772 Weather Reports


time (UTC)temp
F
wind
direction
speed
knots
gust
knots
rain 1hr
in
rain 24hr
in
rain mn
in
humidity
%
barometer
mb
20260507094558 51 221 0.0 4.3 0.00 0.48 0.10 84 1015.1
20260507093046 52 327 0.0 4.3 0.00 0.48 0.10 85 1014.7
20260507091543 51 296 0.0 3.5 0.00 0.48 0.10 90 1014.6
20260507090043 50 288 0.0 3.5 0.01 0.48 0.10 92 1014.5
20260507084541 50 290 0.0 2.6 0.02 0.48 0.10 94 1014.4
20260507083037 49 272 0.0 3.5 0.04 0.48 0.10 95 1014.3
20260507081539 49 295 0.0 1.7 0.05 0.48 0.10 94 1014.1
20260507080034 49 284 0.0 2.6 0.05 0.47 0.09 94 1013.9
20260507074533 49 298 0.0 2.6 0.04 0.46 0.08 94 1013.7
20260507073031 49 284 0.0 3.5 0.02 0.44 0.06 94 1013.5
20260507071529 49 258 0.0 2.6 0.02 0.43 0.06 94 1013.3
20260507070039 49 314 0.0 6.1 0.02 0.43 0.05 93 1013.1
20260507064524 49 314 0.0 1.7 0.01 0.42 0.04 93 1013.0
20260507063022 49 295 0.0 4.3 0.01 0.42 0.04 93 1012.8
20260507061523 49 325 0.0 1.7 0.01 0.42 0.04 93 1012.7
20260507060025 49 297 0.0 3.5 0.01 0.41 0.03 93 1012.7
20260507054518 49 311 0.0 1.7 0.01 0.41 0.03 93 1012.5
20260507053016 49 298 0.0 1.7 0.02 0.41 0.03 93 1012.4
20260507051515 48 300 0.0 3.5 0.02 0.41 0.03 93 1012.2
20260507050021 48 310 0.0 3.5 0.01 0.40 0.02 93 1012.0
20260507044511 48 309 0.0 0.9 0.01 0.40 0.02 92 1011.9
20260507043009 48 267 0.0 2.6 0.00 0.39 0.02 92 1011.6
20260507041507 48 270 0.0 4.3 0.00 0.39 0.02 92 1011.4
20260507040006 48 263 0.0 3.5 0.00 0.39 0.02 92 1011.3
20260507034505 48 292 0.0 1.7 0.00 0.39 0.02 92 1011.2
20260507033003 48 296 0.0 0.0 0.01 0.39 0.02 92 1011.1
20260507031501 48 296 0.0 0.0 0.01 0.39 0.02 92 1011.0
20260507030111 48 296 0.0 0.0 0.01 0.39 0.02 92 1010.9
20260507024613 48 296 0.0 0.0 0.01 0.39 0.02 92 1010.9
20260507023057 48 296 0.0 0.0 0.00 0.39 0.01 92 1010.8
20260507021559 48 296 0.0 0.0 0.00 0.39 0.01 92 1010.8
20260507014559 49 296 0.0 0.0 0.00 0.39 0.01 92 1010.6
20260507013101 49 296 0.0 0.0 0.00 0.39 0.01 92 1010.5
20260507011557 49 296 0.0 0.0 0.00 0.39 0.01 93 1010.4
20260507010053 49 296 0.0 0.0 0.00 0.39 0.01 93 1010.4
20260507004552 49 296 0.0 0.0 0.00 0.39 0.01 93 1010.4
20260507003051 49 296 0.0 0.0 0.00 0.39 0.01 92 1010.4
20260507001551 49 296 0.0 0.0 0.00 0.39 0.01 92 1010.4
20260507000050 49 296 0.0 0.9 0.00 0.39 0.01 91 1010.5
20260506234555 49 288 0.0 1.7 0.00 0.39 0.01 91 1010.6
20260506233052 49 288 0.0 3.5 0.00 0.39 0.01 90 1010.6
20260506231553 49 329 0.9 5.2 0.00 0.39 0.01 90 1010.5
20260506230044 50 360 0.0 2.6 0.00 0.39 0.01 90 1010.4
20260506224543 50 288 0.0 3.5 0.01 0.39 0.01 91 1010.4
20260506223041 50 314 0.0 1.7 0.01 0.39 0.01 91 1010.3
20260506221539 50 260 0.0 5.2 0.01 0.39 0.01 91 1010.0
20260506220037 50 297 0.9 4.3 0.01 0.39 0.01 91 1009.9
20260506214536 50 317 0.0 1.7 0.00 0.38 0.38 93 1009.9
20260506213038 50 299 0.0 0.0 0.00 0.38 0.38 94 1009.8
20260506211534 51 299 0.0 0.0 0.00 0.38 0.38 94 1009.7
20260506210035 51 299 0.0 0.0 0.00 0.38 0.38 94 1009.7
20260506204535 51 299 0.0 0.0 0.00 0.39 0.38 94 1009.6
20260506203038 51 299 0.0 0.0 0.00 0.39 0.38 94 1009.6
20260506201536 50 299 0.0 0.0 0.00 0.39 0.38 94 1009.6
20260506200030 51 299 0.0 0.0 0.00 0.39 0.38 94 1009.4
20260506194529 51 299 0.0 0.0 0.00 0.39 0.38 94 1009.3
20260506193027 51 299 0.0 0.0 0.01 0.39 0.38 94 1009.1
20260506191526 51 299 0.0 0.0 0.01 0.39 0.38 93 1008.8
20260506190023 51 299 0.0 0.0 0.01 0.39 0.38 93 1008.6
20260506184523 51 299 0.0 2.6 0.02 0.39 0.38 92 1008.5
20260506183022 51 300 0.0 1.7 0.02 0.39 0.37 92 1008.3
20260506181522 51 279 0.0 2.6 0.02 0.39 0.37 92 1008.1
20260506180026 51 292 0.0 2.6 0.02 0.39 0.37 91 1007.9
20260506174522 52 306 0.0 1.7 0.02 0.38 0.36 93 1007.9
20260506173022 53 293 0.0 0.0 0.02 0.37 0.35 94 1007.6
20260506171520 53 293 0.0 0.0 0.02 0.36 0.35 94 1007.6
20260506170021 53 293 0.0 0.9 0.02 0.36 0.35 94 1007.5
20260506164519 52 293 0.0 2.6 0.03 0.36 0.35 93 1007.3
20260506163025 53 294 0.0 1.7 0.02 0.35 0.34 93 1007.2
20260506161518 53 295 0.0 1.7 0.02 0.35 0.33 92 1007.1
20260506160017 53 290 0.0 2.6 0.01 0.34 0.32 92 1007.0
20260506154517 54 313 0.0 3.5 0.00 0.33 0.31 93 1006.8
20260506153016 54 304 0.0 5.2 0.02 0.33 0.31 93 1006.5
20260506151516 54 307 0.0 1.7 0.16 0.33 0.31 93 1006.6
20260506150016 53 306 0.0 1.7 0.30 0.33 0.31 93 1006.6
20260506144515 53 306 0.0 3.5 0.31 0.34 0.31 92 1006.4
20260506143023 53 293 0.0 2.6 0.28 0.31 0.28 86 1006.3
20260506141515 57 278 0.0 5.2 0.15 0.17 0.15 82 1006.1
20260506140014 61 75 0.0 0.9 0.02 0.04 0.02 78 1005.6
20260506134513 62 75 0.0 0.9 0.00 0.09 0.00 69 1005.5
20260506133012 63 71 0.0 0.9 0.00 0.09 0.00 70 1005.3
20260506131510 63 70 0.0 0.9 0.00 0.09 0.00 71 1005.3
20260506130009 61 70 0.0 0.9 0.00 0.09 0.00 71 1005.3
20260506124507 61 70 0.0 2.6 0.00 0.09 0.00 75 1005.5
20260506123007 61 81 0.0 0.9 0.00 0.09 0.00 72 1005.5
20260506121509 62 307 0.0 0.9 0.00 0.09 0.00 70 1005.5
20260506120008 62 307 0.0 0.9 0.00 0.09 0.00 71 1005.4
20260506114505 62 307 0.0 0.0 0.00 0.09 0.00 71 1005.6
20260506113006 62 307 0.0 0.9 0.00 0.09 0.00 67 1005.5
20260506111502 62 355 0.0 1.7 0.00 0.09 0.00 69 1005.7
20260506110001 62 286 0.0 0.9 0.00 0.09 0.00 68 1006.0
20260506104559 62 286 0.0 0.9 0.00 0.09 0.00 70 1006.2
20260506103059 62 286 0.0 0.9 0.00 0.09 0.00 68 1006.3
20260506101601 61 286 0.0 1.7 0.00 0.09 0.00 70 1006.4
20260506100114 61 286 0.0 0.9 0.00 0.09 0.00 70 1006.4